When you browse on this site, cookies collect data to enhance your experience and personalize the content and advertising you see.
Visit our Privacy Policy to learn more. By continuing to use the site, you agree to this use of cookies and data.
  • en France
  • Liste des pays
  • À 7 jours
  • Température de l'eau
  • Carte météo
  • Widgets météo
  • user-avatar
    Se connecter

    Météo par heure à Orange Walk

    Ce jour, 23 Août, Vendredi

    Heure Température Précipitation Vent Pression Humidité
    00:00 +27°C° 0 mm 1 m/s 757 mmHg 96%
    01:00 +26°C° 0 mm 1 m/s 757 mmHg 96%
    02:00 +26°C° 0 mm 1 m/s 757 mmHg 96%
    03:00 +26°C° 0 mm 1 m/s 757 mmHg 95%
    04:00 +26°C° 0 mm 1 m/s 757 mmHg 95%
    05:00 +26°C° 0 mm 1 m/s 757 mmHg 95%
    06:00 +26°C° 0 mm 1 m/s 757 mmHg 95%
    07:00 +28°C° 0 mm 2 m/s 757 mmHg 85%
    08:00 +30°C° 0 mm 2 m/s 758 mmHg 75%
    09:00 +33°C° 0 mm 3 m/s 758 mmHg 65%
    10:00 +34°C° 0 mm 3 m/s 758 mmHg 60%
    11:00 +35°C° 0 mm 3 m/s 758 mmHg 55%
    12:00 +36°C° 0 mm 4 m/s 757 mmHg 50%
    13:00 +36°C° 0 mm 4 m/s 757 mmHg 50%
    14:00 +36°C° 0 mm 4 m/s 756 mmHg 51%
    15:00 +36°C° 0 mm 4 m/s 756 mmHg 51%
    16:00 +34°C° 0 mm 3 m/s 756 mmHg 61%
    17:00 +31°C° 0 mm 3 m/s 756 mmHg 71%
    18:00 +29°C° 0 mm 2 m/s 756 mmHg 80%
    19:00 +28°C° 0 mm 2 m/s 756 mmHg 86%
    20:00 +27°C° 0 mm 1 m/s 757 mmHg 91%
    21:00 +26°C° 0 mm 1 m/s 757 mmHg 97%
    22:00 +26°C° 0 mm 1 m/s 757 mmHg 97%
    23:00 +26°C° 0 mm 1 m/s 757 mmHg 97%

    Demain, 24 Août, Samedi

    Heure Température Précipitation Vent Pression Humidité
    00:00 +26°C° 0 mm 1 m/s 757 mmHg 97%
    01:00 +26°C° 0 mm 1 m/s 757 mmHg 97%
    02:00 +26°C° 0 mm 1 m/s 757 mmHg 97%
    03:00 +26°C° 0 mm 1 m/s 757 mmHg 97%
    04:00 +26°C° 0 mm 1 m/s 757 mmHg 97%
    05:00 +26°C° 0 mm 1 m/s 757 mmHg 96%
    06:00 +26°C° 0 mm 1 m/s 757 mmHg 96%
    07:00 +28°C° 0 mm 1 m/s 757 mmHg 86%
    08:00 +30°C° 0 mm 2 m/s 758 mmHg 77%
    09:00 +32°C° 0 mm 2 m/s 758 mmHg 67%
    10:00 +34°C° 0 mm 2 m/s 758 mmHg 62%
    11:00 +35°C° 0 mm 2 m/s 758 mmHg 58%
    12:00 +36°C° 0 mm 3 m/s 757 mmHg 53%
    13:00 +36°C° 0 mm 3 m/s 757 mmHg 52%
    14:00 +36°C° 0 mm 3 m/s 756 mmHg 51%
    15:00 +36°C° 0 mm 3 m/s 756 mmHg 50%
    16:00 +34°C° 0 mm 3 m/s 756 mmHg 59%
    17:00 +31°C° 0 mm 3 m/s 755 mmHg 67%
    18:00 +30°C° 0 mm 2 m/s 755 mmHg 75%
    19:00 +28°C° 0 mm 2 m/s 756 mmHg 81%
    20:00 +27°C° 0 mm 2 m/s 756 mmHg 86%
    21:00 +26°C° 0 mm 2 m/s 757 mmHg 92%
    22:00 +26°C° 0 mm 1 m/s 757 mmHg 93%
    23:00 +26°C° 0 mm 1 m/s 757 mmHg 95%

    Après-demain, 25 Août, Dimanche

    Heure Température Précipitation Vent Pression Humidité
    00:00 +26°C° 0 mm 1 m/s 756 mmHg 96%
    01:00 +26°C° 0 mm 1 m/s 756 mmHg 96%
    02:00 +26°C° 0 mm 1 m/s 756 mmHg 96%
    03:00 +26°C° 0 mm 1 m/s 756 mmHg 96%
    04:00 +26°C° 0.1 mm 1 m/s 756 mmHg 96%
    05:00 +26°C° 0.1 mm 1 m/s 756 mmHg 96%
    06:00 +26°C° 0.1 mm 1 m/s 756 mmHg 96%
    07:00 +28°C° 0 mm 1 m/s 756 mmHg 85%
    08:00 +30°C° 0 mm 2 m/s 757 mmHg 75%
    09:00 +32°C° 0 mm 2 m/s 757 mmHg 64%
    10:00 +34°C° 0 mm 2 m/s 757 mmHg 58%
    11:00 +36°C° 0 mm 3 m/s 757 mmHg 52%
    12:00 +37°C° 0 mm 3 m/s 756 mmHg 46%
    13:00 +36°C° 0 mm 3 m/s 756 mmHg 47%
    14:00 +36°C° 0 mm 3 m/s 755 mmHg 48%
    15:00 +36°C° 0 mm 4 m/s 754 mmHg 49%
    16:00 +34°C° 0 mm 3 m/s 755 mmHg 58%
    17:00 +31°C° 0 mm 3 m/s 755 mmHg 67%
    18:00 +30°C° 0 mm 2 m/s 755 mmHg 76%
    19:00 +29°C° 0 mm 2 m/s 755 mmHg 82%
    20:00 +28°C° 0 mm 2 m/s 756 mmHg 88%
    21:00 +27°C° 0 mm 1 m/s 756 mmHg 94%
    22:00 +27°C° 0 mm 1 m/s 756 mmHg 95%
    23:00 +26°C° 0 mm 1 m/s 756 mmHg 96%

    26 Août, Lundi

    Heure Température Précipitation Vent Pression Humidité
    00:00 +26°C° 0 mm 1 m/s 756 mmHg 96%
    01:00 +26°C° 0 mm 1 m/s 756 mmHg 96%
    02:00 +26°C° 0 mm 1 m/s 755 mmHg 96%
    03:00 +26°C° 0 mm 1 m/s 755 mmHg 96%
    04:00 +26°C° 0.1 mm 1 m/s 755 mmHg 96%
    05:00 +27°C° 0.1 mm 1 m/s 755 mmHg 96%
    06:00 +27°C° 0.1 mm 1 m/s 756 mmHg 96%
    07:00 +28°C° 0.3 mm 2 m/s 756 mmHg 87%
    08:00 +30°C° 0.3 mm 3 m/s 756 mmHg 79%
    09:00 +33°C° 0.3 mm 4 m/s 757 mmHg 71%
    10:00 +34°C° 0.6 mm 4 m/s 756 mmHg 67%
    11:00 +35°C° 0.6 mm 4 m/s 756 mmHg 63%
    12:00 +36°C° 0.6 mm 4 m/s 755 mmHg 58%
    13:00 +36°C° 0 mm 4 m/s 755 mmHg 58%
    14:00 +35°C° 0 mm 4 m/s 754 mmHg 58%
    15:00 +35°C° 0 mm 4 m/s 754 mmHg 57%
    16:00 +34°C° 0 mm 4 m/s 754 mmHg 64%
    17:00 +31°C° 0 mm 3 m/s 754 mmHg 71%
    18:00 +30°C° 0 mm 3 m/s 754 mmHg 78%
    19:00 +29°C° 0 mm 2 m/s 755 mmHg 82%
    20:00 +28°C° 0 mm 2 m/s 756 mmHg 86%
    21:00 +28°C° 0 mm 2 m/s 756 mmHg 90%
    22:00 +28°C° 0 mm 2 m/s 756 mmHg 90%
    23:00 +28°C° 0 mm 2 m/s 756 mmHg 90%

    27 Août, Mardi

    Heure Température Précipitation Vent Pression Humidité
    00:00 +28°C° 0 mm 2 m/s 756 mmHg 90%
    01:00 +27°C° 0 mm 2 m/s 756 mmHg 91%
    02:00 +27°C° 0 mm 2 m/s 755 mmHg 92%
    03:00 +27°C° 0 mm 2 m/s 755 mmHg 93%
    04:00 +27°C° 0 mm 2 m/s 755 mmHg 93%
    05:00 +27°C° 0 mm 1 m/s 756 mmHg 93%
    06:00 +27°C° 0 mm 1 m/s 756 mmHg 94%
    07:00 +29°C° 0 mm 2 m/s 756 mmHg 84%
    08:00 +31°C° 0 mm 3 m/s 756 mmHg 75%
    09:00 +34°C° 0 mm 4 m/s 757 mmHg 65%
    10:00 +34°C° 0.1 mm 4 m/s 757 mmHg 63%
    11:00 +35°C° 0.1 mm 4 m/s 756 mmHg 60%
    12:00 +36°C° 0.1 mm 4 m/s 756 mmHg 57%
    13:00 +35°C° 0.3 mm 4 m/s 756 mmHg 60%
    14:00 +35°C° 0.3 mm 4 m/s 755 mmHg 63%
    15:00 +34°C° 0.3 mm 4 m/s 754 mmHg 65%
    16:00 +33°C° 0 mm 4 m/s 755 mmHg 70%
    17:00 +31°C° 0 mm 3 m/s 755 mmHg 74%
    18:00 +30°C° 0 mm 2 m/s 755 mmHg 78%
    19:00 +29°C° 0 mm 2 m/s 756 mmHg 82%
    20:00 +28°C° 0 mm 2 m/s 756 mmHg 87%
    21:00 +28°C° 0 mm 2 m/s 757 mmHg 91%
    22:00 +27°C° 0 mm 2 m/s 757 mmHg 91%
    23:00 +27°C° 0 mm 2 m/s 757 mmHg 91%

    28 Août, Mercredi

    Heure Température Précipitation Vent Pression Humidité
    00:00 +27°C° 0 mm 1 m/s 757 mmHg 91%
    01:00 +27°C° 0 mm 1 m/s 757 mmHg 91%
    02:00 +27°C° 0 mm 2 m/s 756 mmHg 91%
    03:00 +27°C° 0 mm 2 m/s 756 mmHg 91%
    04:00 +27°C° 0 mm 2 m/s 756 mmHg 90%
    05:00 +27°C° 0 mm 2 m/s 757 mmHg 89%
    06:00 +27°C° 0 mm 2 m/s 757 mmHg 89%
    07:00 +29°C° 0 mm 3 m/s 757 mmHg 80%
    08:00 +31°C° 0 mm 3 m/s 758 mmHg 72%
    09:00 +34°C° 0 mm 4 m/s 758 mmHg 64%
    10:00 +34°C° 0.1 mm 4 m/s 758 mmHg 60%
    11:00 +35°C° 0.1 mm 5 m/s 757 mmHg 57%
    12:00 +36°C° 0.1 mm 5 m/s 757 mmHg 54%
    13:00 +35°C° 0.2 mm 5 m/s 757 mmHg 56%
    14:00 +35°C° 0.2 mm 4 m/s 756 mmHg 59%
    15:00 +34°C° 0.2 mm 4 m/s 755 mmHg 61%
    16:00 +33°C° 0.2 mm 3 m/s 756 mmHg 69%
    17:00 +30°C° 0.2 mm 3 m/s 756 mmHg 76%
    18:00 +29°C° 0.2 mm 2 m/s 756 mmHg 84%
    19:00 +28°C° 0 mm 2 m/s 757 mmHg 87%
    20:00 +27°C° 0 mm 2 m/s 757 mmHg 90%
    21:00 +27°C° 0 mm 2 m/s 758 mmHg 93%
    22:00 +27°C° 0 mm 2 m/s 758 mmHg 93%
    23:00 +27°C° 0 mm 1 m/s 758 mmHg 93%
    Voir plus